This demonstration page uses our WeatherBlox Daily Observations layout. Learn more.

Left ArrowRight Arrow

39.12711, -84.51439

Hourly Observations for September 15, 2021

Temp ( °F °C ) Dew Point ( °F °C ) Humidity (%) Winds ( mph kmh ) Pressure ( in mb ) Visibility ( mi km ) Precip ( " mm )
12:53 am 00:53 Clear 75 23.9 68 20 79 79 SSW 7 11 29.89 1012 10 16 0.00 0.00
1:53 am 01:53 Cloudy with Light Rain 74 23.3 69 20.6 85 85 SSW 8 13 29.90 1012 10 16 0.00 0.00
2:16 am 02:16 Cloudy with Nearby Thunderstorms 73 22.8 70 21.1 90 90 SSW 6 9 29.88 1012 10 16 0.04 1.02
2:47 am 02:47 Cloudy with Thunderstorms 75 24 66 19 74 74 N 12 19 29.89 1012 10 16 0.04 1.02
2:53 am 02:53 Cloudy with Thunderstorms 75 23.9 66 18.9 74 74 N 9 15 29.89 1012 10 16 0.04 1.02
3:00 am 03:00 Cloudy with Thunderstorms 75 23.9 64 17.8 69 69 N 9 15 29.88 1012 10 16 0.00 0.00
3:08 am 03:08 Cloudy with Nearby Thunderstorms 74 23.3 64 17.8 71 71 N 5 7 29.87 1012 10 16 0.00 0.00
3:19 am 03:19 Cloudy 73 22.8 66 18.9 79 79 E 3 6 29.88 1012 10 16 0.00 0.00
3:53 am 03:53 Cloudy 71 21.7 67 19.4 87 87 N 5 7 29.89 1012 10 16 0.00 0.00
4:31 am 04:31 Cloudy with Nearby Thunderstorms 71 21.7 67 19.4 87 87 N 3 6 29.90 1012 10 16 0.00 0.00
4:53 am 04:53 Cloudy 69 20.6 67 19.4 93 93 Calm 29.91 1013 10 16 0.00 0.00
5:53 am 05:53 Mostly Cloudy 69 20.6 68 20 96 96 Calm 29.90 1013 10 16 0.00 0.00
6:53 am 06:53 Mostly Cloudy 69 20.6 67 19.4 93 93 SSE 5 7 29.90 1013 10 16 0.00 0.00
7:53 am 07:53 Mostly Cloudy 70 21.1 68 20 93 93 SE 3 6 29.92 1013 10 16 0.00 0.00
8:53 am 08:53 Mostly Cloudy 72 22.2 67 19.4 84 84 Calm 29.93 1014 10 16 0.00 0.00
9:53 am 09:53 Cloudy 73 22.8 67 19.4 81 81 Calm 29.96 1015 10 16 0.00 0.00
10:16 am 10:16 Mostly Cloudy with Light Rain 73 22.8 68 20 84 84 Calm 29.96 1015 10 16 0.00 0.00
10:23 am 10:23 Cloudy 73 22.8 68 20 84 84 Calm 29.97 1015 10 16 0.00 0.00
10:53 am 10:53 Cloudy with Light Rain 73 22.8 68 20 84 84 Calm 29.98 1015 10 16 0.00 0.00
11:53 am 11:53 Cloudy 75 23.9 66 18.9 74 74 Calm 29.98 1015 10 16 0.00 0.00
12:53 pm 12:53 Mostly Cloudy 76 24.4 67 19.4 74 74 N 7 11 29.97 1015 10 16 0.00 0.00
1:53 pm 13:53 Cloudy 74 23.3 68 20 82 82 N 7 11 29.98 1015 10 16 0.00 0.00
2:53 pm 14:53 Mostly Cloudy 79 26.1 68 20 69 69 N 7 11 29.96 1015 10 16 0.00 0.00
3:28 pm 15:28 Cloudy 79 26.1 67 19.4 67 67 N 10 17 29.95 1014 10 16 0.00 0.00
3:53 pm 15:53 Mostly Cloudy 75 23.9 67 19.4 76 76 N 13 20 29.96 1015 10 16 0.00 0.00
4:53 pm 16:53 Partly Cloudy 77 25 66 18.9 69 69 NNW 10 17 29.96 1015 10 16 0.00 0.00
5:53 pm 17:53 Partly Cloudy 78 25.6 65 18.3 64 64 NNE 9 15 29.96 1015 10 16 0.00 0.00
6:53 pm 18:53 Sunny 77 25 63 17.2 62 62 NNE 6 9 29.99 1016 10 16 0.00 0.00
7:53 pm 19:53 Partly Cloudy 73 22.8 64 17.8 74 74 ENE 5 7 29.99 1016 10 16 0.00 0.00
8:53 pm 20:53 Mostly Clear 68 20 64 17.8 87 87 E 5 7 30.01 1016 10 16 0.00 0.00
9:53 pm 21:53 Clear 68 20 63 17.2 84 84 ENE 3 6 30.03 1017 10 16 0.00 0.00
10:53 pm 22:53 Partly Cloudy 65 18.3 63 17.2 93 93 Calm 30.05 1018 10 16 0.00 0.00
11:53 pm 23:53 Mostly Cloudy 64 17.8 63 17.2 96 96 Calm 30.05 1018 10 16 0.00 0.00

Powered by AerisWeather